FW9469 Weather Reports


time (UTC)temp
C
wind
direction
speed
KPH
gust
KPH
rain 1hr
cm
rain 24hr
cm
rain mn
cm
humidity
%
barometer
mb
20260509011555 16 0 0.0 0.0 0.00 0.00 0.00 82 1015.0
20260509010052 16 0 0.0 0.0 0.00 0.00 0.00 81 1014.8
20260509004621 16 0 0.0 1.6 0.00 0.00 0.00 80 1014.7
20260509003054 16 0 0.0 0.0 0.00 0.00 0.00 78 1014.7
20260509001555 17 0 0.0 0.0 0.00 0.00 0.00 75 1014.7
20260509000053 17 0 0.0 1.6 0.00 0.00 0.00 72 1014.7
20260508234551 17 0 0.0 3.2 0.00 0.00 0.00 70 1014.6
20260508233054 18 184 1.6 3.2 0.00 0.00 0.00 69 1014.6
20260508231557 18 0 0.0 4.8 0.00 0.00 0.00 68 1014.6
20260508230051 18 0 0.0 4.8 0.00 0.00 0.00 68 1014.6
20260508224557 18 0 0.0 6.4 0.00 0.00 0.00 66 1014.6
20260508223053 19 159 1.6 6.4 0.00 0.00 0.00 65 1014.6
20260508221550 19 191 1.6 6.4 0.00 0.00 0.00 63 1014.4
20260508220056 19 177 1.6 6.4 0.00 0.00 0.00 60 1014.4
20260508214603 19 163 3.2 11.3 0.00 0.00 0.00 60 1014.5
20260508213048 20 164 0.0 8.0 0.00 0.00 0.00 60 1014.5
20260508211546 20 158 3.2 16.1 0.00 0.00 0.00 60 1014.5
20260508210052 20 164 4.8 11.3 0.00 0.00 0.00 59 1014.6
20260508204552 20 225 4.8 12.9 0.00 0.00 0.00 57 1014.5
20260508203052 20 167 6.4 12.9 0.00 0.00 0.00 56 1014.6
20260508201552 20 205 8.0 14.5 0.00 0.00 0.00 56 1014.9
20260508200053 20 200 3.2 11.3 0.00 0.00 0.00 55 1015.0
20260508194549 20 246 4.8 14.5 0.00 0.00 0.00 54 1015.2
20260508193107 20 196 1.6 9.7 0.00 0.00 0.00 52 1015.5
20260508191555 20 156 8.0 20.9 0.00 0.00 0.00 50 1015.8
20260508190105 20 0 3.2 12.9 0.00 0.00 0.00 51 1015.9
20260508184559 20 123 8.0 24.1 0.00 0.00 0.00 51 1015.9
20260508183112 20 238 4.8 12.9 0.00 0.00 0.00 51 1016.3
20260508181554 20 239 6.4 17.7 0.00 0.00 0.00 53 1016.4
20260508174605 19 225 6.4 17.7 0.00 0.00 0.00 55 1016.9
20260508173053 18 203 9.7 22.5 0.00 0.00 0.00 56 1017.1
20260508171551 18 155 9.7 16.1 0.00 0.00 0.00 55 1017.3
20260508170057 18 136 8.0 22.5 0.00 0.00 0.00 56 1017.5
20260508164554 18 251 3.2 22.5 0.00 0.00 0.00 58 1017.7
20260508163053 18 150 6.4 17.7 0.00 0.00 0.00 56 1017.9
20260508161602 17 146 8.0 17.7 0.00 0.00 0.00 59 1018.3
20260508160053 18 132 11.3 20.9 0.00 0.00 0.00 57 1018.4
20260508154551 18 154 4.8 12.9 0.00 0.00 0.00 57 1018.3
20260508153054 18 146 6.4 14.5 0.00 0.00 0.00 58 1018.6
20260508151549 17 155 6.4 14.5 0.00 0.00 0.00 58 1018.7
20260508150050 17 114 3.2 9.7 0.00 0.00 0.00 58 1018.6
20260508144555 17 36 3.2 17.7 0.00 0.03 0.00 58 1018.6
20260508143059 17 29 3.2 14.5 0.00 0.03 0.00 57 1018.5
20260508141605 16 101 4.8 12.9 0.00 0.03 0.00 69 1018.6
20260508140048 15 42 3.2 11.3 0.00 0.03 0.00 71 1018.8
20260508134556 15 27 1.6 8.0 0.00 0.03 0.00 74 1019.1
20260508133057 14 355 3.2 6.4 0.00 0.03 0.00 75 1019.0
20260508131603 13 103 0.0 8.0 0.00 0.03 0.00 77 1019.1
20260508130049 13 0 1.6 4.8 0.00 0.03 0.00 79 1018.9
20260508124555 12 19 1.6 8.0 0.00 0.03 0.00 80 1018.7
20260508123113 12 5 0.0 6.4 0.00 0.03 0.00 85 1018.6
20260508121608 11 360 1.6 6.4 0.00 0.03 0.00 87 1018.2
20260508120108 10 360 3.2 6.4 0.00 0.03 0.00 89 1018.1
20260508114559 10 10 1.6 6.4 0.00 0.03 0.00 91 1017.9
20260508113103 9 9 0.0 4.8 0.00 0.03 0.00 92 1017.6
20260508111552 8 9 1.6 6.4 0.00 0.03 0.00 92 1017.4
20260508110106 8 61 1.6 4.8 0.00 0.03 0.00 92 1016.8
20260508104558 8 63 0.0 3.2 0.00 0.03 0.00 92 1016.7
20260508103101 8 0 0.0 0.0 0.00 0.03 0.00 92 1016.4
20260508101558 8 0 0.0 1.6 0.00 0.03 0.00 92 1016.2
20260508100052 8 0 0.0 1.6 0.00 0.03 0.00 92 1016.0
20260508094551 8 0 0.0 1.6 0.00 0.05 0.00 92 1016.0
20260508093053 8 0 0.0 1.6 0.00 0.05 0.00 91 1015.8
20260508091556 8 63 0.0 3.2 0.00 0.05 0.00 91 1015.6
20260508084557 9 63 0.0 3.2 0.00 0.05 0.00 91 1015.4
20260508083051 9 0 0.0 3.2 0.00 0.05 0.00 91 1015.3
20260508081554 9 63 1.6 3.2 0.00 0.05 0.00 91 1015.3
20260508080050 9 69 0.0 3.2 0.00 0.05 0.00 91 1015.2
20260508074551 10 0 0.0 3.2 0.00 0.05 0.00 91 1015.2
20260508073051 10 79 0.0 3.2 0.00 0.05 0.00 90 1015.3
20260508071554 10 355 0.0 3.2 0.00 0.05 0.00 90 1015.4
20260508070056 10 0 0.0 0.0 0.00 0.05 0.00 90 1015.3
20260508064555 10 0 0.0 1.6 0.00 0.08 0.00 89 1015.2
20260508063104 10 0 0.0 0.0 0.00 0.08 0.00 89 1015.1
20260508061551 11 355 0.0 3.2 0.00 0.08 0.00 89 1015.1
20260508060052 11 0 0.0 1.6 0.00 0.08 0.00 89 1015.3
20260508054553 11 0 0.0 3.2 0.00 0.10 0.00 88 1015.2
20260508053103 11 355 0.0 1.6 0.00 0.10 0.00 86 1015.4
20260508051554 11 355 0.0 4.8 0.00 0.10 0.00 87 1015.4
20260508050050 12 0 0.0 0.0 0.00 0.10 0.00 85 1015.3
20260508044556 12 0 0.0 0.0 0.00 0.13 0.00 83 1015.2
20260508043059 12 0 0.0 0.0 0.00 0.13 0.00 84 1015.1
20260508041559 12 0 0.0 0.0 0.00 0.13 0.00 85 1015.1
20260508040056 12 355 0.0 3.2 0.00 0.13 0.00 84 1014.9
20260508034610 13 0 0.0 4.8 0.00 0.13 0.13 84 1014.7
20260508033056 13 0 0.0 3.2 0.00 0.13 0.13 80 1015.0
20260508031556 14 258 1.6 4.8 0.00 0.13 0.13 77 1014.8
20260508030056 14 257 0.0 4.8 0.00 0.13 0.13 79 1014.7
20260508024552 15 257 1.6 4.8 0.00 0.23 0.13 77 1014.5
20260508023055 15 0 0.0 3.2 0.00 0.23 0.13 77 1014.5
20260508021559 15 256 0.0 4.8 0.00 0.23 0.13 75 1014.1
20260508020053 15 0 0.0 6.4 0.00 0.23 0.13 76 1014.0
20260508014558 15 246 1.6 4.8 0.00 0.53 0.13 74 1013.8
20260508013058 16 0 0.0 6.4 0.00 0.53 0.13 72 1013.5